When you browse on this site, cookies collect data to enhance your experience and personalize the content and advertising you see.
Visit our Privacy Policy to learn more. By continuing to use the site, you agree to this use of cookies and data.
  • In Lithuania
  • List of Countries
  • For 7 days
  • Water Temperature
  • Satellite Maps
  • Weather Map
  • Weather Widgets
  • user-avatar
    Login

    Hourly Weather Lambaréné

    Today, 18 November, Sunday

    Time Temperature Precipitation Wind Pressure Humidity
    00:00 +26°C° 0.1 mm 1 mps 754 mmHg 95%
    01:00 +26°C° 0 mm 1 mps 753 mmHg 96%
    02:00 +24°C° 0.1 mm 0 mps 753 mmHg 96%
    03:00 +23°C° 0.1 mm 0 mps 753 mmHg 97%
    04:00 +23°C° 0.1 mm 0 mps 753 mmHg 97%
    05:00 +24°C° 0 mm 0 mps 753 mmHg 96%
    06:00 +24°C° 0 mm 0 mps 753 mmHg 95%
    07:00 +24°C° 0 mm 0 mps 753 mmHg 94%
    08:00 +26°C° 0.3 mm 0 mps 754 mmHg 85%
    09:00 +28°C° 0.3 mm 0 mps 754 mmHg 76%
    10:00 +31°C° 0.3 mm 0 mps 754 mmHg 67%
    11:00 +32°C° 2.8 mm 1 mps 753 mmHg 72%
    12:00 +31°C° 2.8 mm 1 mps 753 mmHg 77%
    13:00 +30°C° 2.8 mm 1 mps 752 mmHg 82%
    14:00 +30°C° 0.2 mm 1 mps 752 mmHg 80%
    15:00 +30°C° 0.2 mm 1 mps 751 mmHg 77%
    16:00 +30°C° 0.2 mm 1 mps 751 mmHg 75%
    17:00 +29°C° 0 mm 1 mps 751 mmHg 80%
    18:00 +28°C° 0 mm 1 mps 752 mmHg 84%
    19:00 +27°C° 0 mm 1 mps 752 mmHg 89%
    20:00 +27°C° 0.4 mm 1 mps 753 mmHg 91%
    21:00 +25°C° 0.4 mm 0 mps 753 mmHg 92%
    22:00 +25°C° 0.4 mm 0 mps 754 mmHg 94%
    23:00 +24°C° 0.4 mm 0 mps 754 mmHg 95%

    Tomorrow, 19 November, Monday

    Time Temperature Precipitation Wind Pressure Humidity
    00:00 +24°C° 0.4 mm 0 mps 754 mmHg 95%
    01:00 +24°C° 0.4 mm 0 mps 753 mmHg 96%
    02:00 +24°C° 0.3 mm 0 mps 753 mmHg 96%
    03:00 +24°C° 0.3 mm 0 mps 753 mmHg 96%
    04:00 +24°C° 0.3 mm 0 mps 752 mmHg 97%
    05:00 +24°C° 0.4 mm 0 mps 753 mmHg 96%
    06:00 +24°C° 0.4 mm 0 mps 753 mmHg 96%
    07:00 +26°C° 0.4 mm 1 mps 753 mmHg 96%
    08:00 +28°C° 0 mm 1 mps 753 mmHg 88%
    09:00 +29°C° 0 mm 1 mps 754 mmHg 81%
    10:00 +31°C° 0 mm 1 mps 754 mmHg 73%
    11:00 +32°C° 0 mm 1 mps 753 mmHg 69%
    12:00 +33°C° 0 mm 1 mps 752 mmHg 64%
    13:00 +34°C° 0 mm 1 mps 752 mmHg 59%
    14:00 +33°C° 0.3 mm 1 mps 751 mmHg 64%
    15:00 +33°C° 0.3 mm 1 mps 751 mmHg 68%
    16:00 +32°C° 0.3 mm 1 mps 750 mmHg 72%
    17:00 +30°C° 1.7 mm 1 mps 751 mmHg 79%
    18:00 +29°C° 1.7 mm 1 mps 751 mmHg 86%
    19:00 +27°C° 1.7 mm 1 mps 752 mmHg 93%
    20:00 +27°C° 0 mm 1 mps 753 mmHg 93%
    21:00 +27°C° 0 mm 1 mps 753 mmHg 94%
    22:00 +27°C° 0 mm 1 mps 754 mmHg 95%
    23:00 +26°C° 0.1 mm 1 mps 754 mmHg 96%

    Day after tomorrow, 20 November, Tuesday

    Time Temperature Precipitation Wind Pressure Humidity
    00:00 +26°C° 0.1 mm 1 mps 753 mmHg 96%
    01:00 +26°C° 0.1 mm 1 mps 753 mmHg 96%
    02:00 +26°C° 0 mm 1 mps 753 mmHg 97%
    03:00 +26°C° 0 mm 1 mps 752 mmHg 97%
    04:00 +26°C° 0 mm 1 mps 752 mmHg 97%
    05:00 +26°C° 0 mm 1 mps 752 mmHg 96%
    06:00 +26°C° 0 mm 1 mps 753 mmHg 95%
    07:00 +26°C° 0 mm 1 mps 753 mmHg 94%
    08:00 +28°C° 0 mm 1 mps 754 mmHg 85%
    09:00 +31°C° 0 mm 1 mps 754 mmHg 75%
    10:00 +33°C° 0 mm 1 mps 754 mmHg 65%
    11:00 +33°C° 0.7 mm 1 mps 754 mmHg 66%
    12:00 +33°C° 0.7 mm 1 mps 753 mmHg 67%
    13:00 +33°C° 0.7 mm 1 mps 752 mmHg 68%
    14:00 +32°C° 1.5 mm 1 mps 752 mmHg 73%
    15:00 +31°C° 1.5 mm 1 mps 751 mmHg 78%
    16:00 +31°C° 1.5 mm 2 mps 751 mmHg 83%
    17:00 +29°C° 0.7 mm 1 mps 752 mmHg 87%
    18:00 +28°C° 0.7 mm 1 mps 752 mmHg 90%
    19:00 +27°C° 0.7 mm 1 mps 753 mmHg 94%
    20:00 +27°C° 0.2 mm 1 mps 753 mmHg 94%
    21:00 +27°C° 0.2 mm 1 mps 754 mmHg 94%
    22:00 +26°C° 0.2 mm 1 mps 754 mmHg 95%
    23:00 +26°C° 0.6 mm 1 mps 754 mmHg 95%

    21 November, Wednesday

    Time Temperature Precipitation Wind Pressure Humidity
    00:00 +26°C° 0.6 mm 1 mps 754 mmHg 95%
    01:00 +26°C° 0.6 mm 1 mps 753 mmHg 95%
    02:00 +26°C° 0.9 mm 1 mps 753 mmHg 95%
    03:00 +26°C° 0.9 mm 1 mps 753 mmHg 95%
    04:00 +26°C° 0.9 mm 1 mps 752 mmHg 95%
    05:00 +26°C° 0.1 mm 1 mps 753 mmHg 95%
    06:00 +26°C° 0.1 mm 1 mps 753 mmHg 94%
    07:00 +26°C° 0.1 mm 1 mps 754 mmHg 94%
    08:00 +28°C° 0 mm 1 mps 754 mmHg 84%
    09:00 +30°C° 0 mm 1 mps 754 mmHg 75%
    10:00 +32°C° 0 mm 1 mps 755 mmHg 65%
    11:00 +33°C° 0.3 mm 1 mps 754 mmHg 65%
    12:00 +33°C° 0.3 mm 1 mps 753 mmHg 64%
    13:00 +33°C° 0.3 mm 1 mps 752 mmHg 63%
    14:00 +33°C° 1.1 mm 1 mps 752 mmHg 68%
    15:00 +32°C° 1.1 mm 2 mps 751 mmHg 73%
    16:00 +31°C° 1.1 mm 2 mps 751 mmHg 78%
    17:00 +30°C° 0.3 mm 1 mps 752 mmHg 83%
    18:00 +29°C° 0.3 mm 1 mps 752 mmHg 88%
    19:00 +27°C° 0.3 mm 1 mps 753 mmHg 92%
    20:00 +27°C° 0.4 mm 1 mps 753 mmHg 93%
    21:00 +27°C° 0.4 mm 1 mps 754 mmHg 94%
    22:00 +26°C° 0.4 mm 1 mps 754 mmHg 95%
    23:00 +26°C° 0.5 mm 1 mps 754 mmHg 95%

    22 November, Thursday

    Time Temperature Precipitation Wind Pressure Humidity
    00:00 +26°C° 0.5 mm 1 mps 754 mmHg 96%
    01:00 +26°C° 0.5 mm 1 mps 753 mmHg 96%
    02:00 +26°C° 0 mm 1 mps 753 mmHg 96%
    03:00 +24°C° 0 mm 0 mps 753 mmHg 97%
    04:00 +24°C° 0 mm 0 mps 752 mmHg 97%
    05:00 +24°C° 0 mm 0 mps 753 mmHg 96%
    06:00 +26°C° 0 mm 1 mps 753 mmHg 96%
    07:00 +26°C° 0 mm 1 mps 753 mmHg 95%
    08:00 +25°C° 0 mm 0 mps 754 mmHg 91%
    09:00 +26°C° 0 mm 0 mps 754 mmHg 87%
    10:00 +27°C° 0 mm 0 mps 755 mmHg 83%
    11:00 +30°C° 0.3 mm 1 mps 754 mmHg 77%
    12:00 +32°C° 0.3 mm 1 mps 753 mmHg 70%
    13:00 +33°C° 0.3 mm 1 mps 752 mmHg 63%
    14:00 +32°C° 0.7 mm 1 mps 752 mmHg 68%
    15:00 +32°C° 0.7 mm 1 mps 751 mmHg 73%
    16:00 +31°C° 0.7 mm 2 mps 751 mmHg 78%
    17:00 +29°C° 0.7 mm 2 mps 752 mmHg 84%
    18:00 +28°C° 0.7 mm 1 mps 752 mmHg 89%
    19:00 +27°C° 0.7 mm 1 mps 753 mmHg 94%
    20:00 +26°C° 0.2 mm 1 mps 753 mmHg 95%
    21:00 +26°C° 0.2 mm 1 mps 754 mmHg 95%
    22:00 +24°C° 0.2 mm 0 mps 754 mmHg 96%
    23:00 +24°C° 0 mm 0 mps 754 mmHg 96%

    23 November, Friday

    Time Temperature Precipitation Wind Pressure Humidity
    00:00 +23°C° 0 mm 0 mps 754 mmHg 97%
    01:00 +23°C° 0 mm 0 mps 753 mmHg 97%
    02:00 +23°C° 0 mm 0 mps 753 mmHg 97%
    03:00 +23°C° 0 mm 0 mps 753 mmHg 97%
    04:00 +23°C° 0 mm 0 mps 753 mmHg 97%
    05:00 +24°C° 0 mm 0 mps 753 mmHg 96%
    06:00 +24°C° 0 mm 0 mps 754 mmHg 96%
    07:00 +24°C° 0 mm 0 mps 754 mmHg 95%
    08:00 +25°C° 0 mm 0 mps 754 mmHg 90%
    09:00 +26°C° 0 mm 0 mps 754 mmHg 86%
    10:00 +27°C° 0 mm 0 mps 754 mmHg 81%
    11:00 +29°C° 0.1 mm 0 mps 754 mmHg 73%
    12:00 +32°C° 0.1 mm 1 mps 753 mmHg 66%
    13:00 +34°C° 0.1 mm 1 mps 752 mmHg 58%
    14:00 +33°C° 0.4 mm 1 mps 752 mmHg 61%
    15:00 +33°C° 0.4 mm 1 mps 751 mmHg 63%
    16:00 +33°C° 0.4 mm 1 mps 751 mmHg 66%
    17:00 +31°C° 0.6 mm 1 mps 751 mmHg 75%
    18:00 +29°C° 0.6 mm 1 mps 752 mmHg 84%
    19:00 +27°C° 0.6 mm 1 mps 752 mmHg 93%
    20:00 +27°C° 0 mm 1 mps 753 mmHg 94%
    21:00 +26°C° 0 mm 1 mps 753 mmHg 95%
    22:00 +26°C° 0 mm 1 mps 754 mmHg 96%
    23:00 +26°C° 0 mm 1 mps 753 mmHg 96%
    Show more